This demonstration page uses our WeatherBlox Daily Observations layout. Learn more.

38.89511, -77.03637

Hourly Observations for October 19, 2015

Temp ( °F °C ) Dew Point ( °F °C ) Humidity (%) Winds ( mph kmh ) Pressure ( in mb ) Visibility ( mi km ) Precip ( " mm )
12:52 am 00:52 Mostly Clear 42 5.6 31 -0.6 65 65 NNW 7 11 30.45 1031 10 16.0934 0 0
1:52 am 01:52 Clear 41 5 32 0 70 70 NNW 8 13 30.46 1032 10 16.0934 0 0
2:52 am 02:52 Clear 40 4.4 32 0 73 73 N 5 7 30.48 1032 10 16.0934 0 0
3:52 am 03:52 Clear 38 3.3 32 0 79 79 N 6 9 30.48 1032 10 16.0934 0 0
4:52 am 04:52 Clear 38 3.3 32 0 79 79 N 6 9 30.49 1033 10 16.0934 0 0
5:52 am 05:52 Clear 37 2.8 31 -0.6 79 79 NNW 6 9 30.5 1033 10 16.0934 0 0
6:52 am 06:52 Mostly Clear 39 3.9 31 -0.6 73 73 NNW 3 6 30.52 1034 10 16.0934 0 0
7:52 am 07:52 Mostly Sunny 40 4.4 32 0 73 73 Calm 30.53 1034 10 16.0934 0 0
8:52 am 08:52 Mostly Sunny 43 6.1 35 1.7 74 74 Calm 30.55 1034 10 16.0934 0 0
9:52 am 09:52 Mostly Sunny 46 7.8 31 -0.6 56 56 Calm 30.55 1035 10 16.0934 0 0
10:52 am 10:52 Mostly Sunny 47 8.3 31 -0.6 54 54 ESE 3 6 30.54 1034 10 16.0934 0 0
11:52 am 11:52 Mostly Sunny 50 10 32 0 50 50 SSE 7 11 30.53 1034 10 16.0934 0 0
12:52 pm 12:52 Mostly Sunny 53 11.7 32 0 45 45 SSE 9 15 30.5 1033 10 16.0934 0 0
1:52 pm 13:52 Sunny 53 11.7 31 -0.6 43 43 S 8 13 30.47 1032 10 16.0934 0 0
2:52 pm 14:52 Sunny 55 12.8 33 0.6 44 44 S 12 19 30.44 1031 10 16.0934 0 0
3:52 pm 15:52 Sunny 55 12.8 32 0 42 42 S 10 17 30.42 1030 10 16.0934 0 0
4:52 pm 16:52 Mostly Sunny 55 12.8 33 0.6 44 44 S 9 15 30.41 1030 10 16.0934 0 0
5:52 pm 17:52 Mostly Sunny 54 12.2 31 -0.6 42 42 SSW 10 17 30.4 1029 10 16.0934 0 0
6:52 pm 18:52 Clear 52 11.1 32 0 47 47 S 9 15 30.39 1029 10 16.0934 0 0
7:52 pm 19:52 Clear 50 10 35 1.7 57 57 SSW 7 11 30.39 1029 10 16.0934 0 0
8:52 pm 20:52 Clear 49 9.4 36 2.2 61 61 SSW 7 11 30.38 1029 10 16.0934 0 0
9:52 pm 21:52 Clear 48 8.9 37 2.8 66 66 SSW 8 13 30.37 1029 10 16.0934 0 0
10:52 pm 22:52 Clear 48 8.9 38 3.3 68 68 SSW 10 17 30.37 1028 10 16.0934 0 0
11:52 pm 23:52 Clear 48 8.9 37 2.8 66 66 SSW 12 19 30.36 1028 10 16.0934 0 0

Powered by AerisWeather